Location: Newark
(21.8258°S, 114.1586°E)
Time: 05:14:42
(UTC+00:00)

Hubble Space Telescope - Pass Details

Date: 17 December 2019
Orbit: 536 x 540 km, 28.5° (Epoch: 20 January)

Event Time Altitude Azimuth Distance (km) Brightness Sun altitude
Rises 13:38:34 0° 252° (WSW) 2,685 5.2 -30.2°
Reaches altitude 10° 13:40:50 10° 254° (WSW) 1,791 4.1 -30.6°
Enters shadow 13:42:17 21° 257° (WSW) 1,246 3.1 -30.8°
